Location: LewisvilleTX
(33.0462°N, 96.9942°W)
Time: 13:51:50
(UTC+00:00)

MANDRAKE 2 BAKER - Pass Details

Date: 02 June 2022
Orbit: 516 x 532 km, 97.6° (Epoch: 30 June)

Event Time Altitude Azimuth Distance (km) Brightness Sun altitude
Exits shadow 07:20:41 14° 47° (NE) 1,556 ? -33.2°
Drops below altitude 10° 07:21:44 10° 33° (NNE) 1,773 ? -33.2°
Sets 07:24:30 0° 10° (N) 2,663 ? -33.0°
